Notices

What's New in latest Release from April 7th, 2021:

- Updated Glossary, including Speed of Maximum Gust, and Total Hourly Precipitation

- Updated national and regional climate services offices contacts and prices information

- Addition of station inventory lists for 1981-2010, 1971-2000, and 1961-1990 Normals.

If you haven't already, please take our survey and provide feedback about our website: https://eccc.sondage-survey.ca/f/LanguageSelection.aspx?s=442ca660-fcf1-47c0-95a9-59707d6fd709

Hourly Data Report for September 17, 2017

VICTORIA UNIVERSITY CS
BRITISH COLUMBIA

48°27'25.200" N
123°18'16.600" W
60.10 m
1018598
71783
WYJ

Download Data

Hourly Data (September 2017)
Hourly Data Report for September 17, 2017
TIME
LST
Temp Definition
°C
Dew Point Definition
°C
Rel Hum Definition
%
Precip. Amount Definition
mm

Wind Dir Definition
10's deg

Wind Spd Definition
km/h
Visibility Definition
km
Stn Press Definition
kPa
Hmdx Definition


Wind Chill Definition


Weather Definition


00:00 9.4 6.4 82 0.0 8 2   100.37     LegendNANA
01:00 8.9 7.1 88 0.0 3 4   100.32     LegendNANA
02:00 9.4 8.3 93 0.0 7 1   100.31     LegendNANA
03:00 9.1 8.2 94 0.0   0   100.24     LegendNANA
04:00 9.5 8.6 94 0.0 21 1   100.23     LegendNANA
05:00 11.0 7.9 81 0.0 22 1   100.18     LegendNANA
06:00 10.6 8.4 86 0.0 13 2   100.14     LegendNANA
07:00 12.1 9.5 84 0.0 13 2   100.09     LegendNANA
08:00 16.1 9.1 63 0.0 21 4   100.11     LegendNANA
09:00 17.3 8.2 55 0.0 22 3   100.09     LegendNANA
10:00 12.5 9.8 84 0.0 14 5   100.08     LegendNANA
11:00 12.5 9.8 84 0.0 14 5   100.02     LegendNANA
12:00 13.3 10.6 84 0.0 10 3   99.91     LegendNANA
13:00 13.9 11.6 86 0.0 5 2   99.87     LegendNANA
14:00 14.1 12.4 90 0.2 31 8   99.90     LegendNANA
15:00 13.3 11.1 87 0.0 23 9   99.93     LegendNANA
16:00 12.4 9.9 85 0.0 22 9   99.94     LegendNANA
17:00 13.5 9.7 78 0.0 24 9   100.01     LegendNANA
18:00 12.0 9.6 85 0.0 16 2   100.03     LegendNANA
19:00 10.1 8.7 91 0.0 25 2   100.04     LegendNANA
20:00 11.4 9.2 86 0.0 24 5   100.08     LegendNANA
21:00 10.9 8.7 86 0.0 25 4   100.10     LegendNANA
22:00 10.9 8.6 85 0.0 25 5   100.10     LegendNANA
23:00 11.1 8.5 84 0.0 17 4   100.15     LegendNANA

Notes on Data Quality.

Legend

  • E = Estimated
  • M = Missing
  • NA = Not Available*
  • [empty] = Indicates an unobserved value
Date modified: